Regional Weather Roundup
Issued by NWS

Home | Current Version | Previous Version | Graphics & Text | Print | Product List | Glossary Off
Versions: 1 2 3 4 5 6 7 8 9 10 11 12 13 14 15 16 17 18 19 20 21 22 23 24 25 26 27 28 29 30 31 32 33 34 35 36 37 38 39 40 41 42 43 44 45 46 47 48 49 50

000
ASUS43 KDTX 241710
RWRMI
MICHIGAN HOURLY REGIONAL WEATHER ROUNDUP
NATIONAL WEATHER SERVICE DETROIT/PONTIAC MI
100 PM EDT SUN MAY 24 2015

NOTE: "FAIR" INDICATES FEW OR NO CLOUDS BELOW 12,000 FEET WITH NO
SIGNIFICANT WEATHER AND/OR OBSTRUCTION TO VISIBILITY.

MIZ047>049-052>055-059>063-066>070-074>076-081>083-241800-
SOUTHEAST LOWER MICHIGAN

CITY           SKY/WX    TMP DP  RH WIND       PRES   REMARKS
ADRIAN         PTSUNNY   76  50  40 SW10      30.23F
ALMA           CLOUDY    73  50  43 SW10      30.22S
ANN ARBOR      PTSUNNY   76  52  43 S10       30.24F
BAD AXE        CLOUDY    75  46  35 W9        30.22S
CARO           CLOUDY    78  49  36 SW13      30.21S
DETROIT CITY   CLOUDY    76  50  40 SW13      30.24F
DETROIT        CLOUDY    76  50  40 S9        30.25F
FLINT          CLOUDY    77  50  38 SW9       30.23F
GROSSE ILE     CLOUDY    70  55  60 SE3       30.23F
HILLSDALE      CLOUDY    74  51  44 S8        30.24F
HOWELL         CLOUDY    73  47  39 SW9       30.24F

CITY           SKY/WX    TMP DP  RH WIND       PRES   REMARKS
JACKSON        CLOUDY    74  51  44 S7        30.23F
LAMBERTVILLE   MOSUNNY   79  46  31 SW6       30.23F
LANSING        CLOUDY    73  52  47 S10       30.23F
LAPEER         FAIR      77  44  30 W9        30.23F
MASON          CLOUDY    72  49  44 S8        30.23F
MONROE         PTSUNNY   79  48  34 SW7       30.22F
MT. CLEMENS    PTSUNNY   77  51  41 SW9       30.22S
PONTIAC        CLOUDY    74  49  41 S8        30.24F
PORT HOPE        N/A     62  54  74 SE7       30.20S
PORT HURON     MOSUNNY   77  52  41 S12G18    30.24S
TRI CITIES     CLOUDY    79  45  29 SW16      30.21S
MIDLAND        FAIR      78  46  31 S7G17     30.19F
TROY           CLOUDY    77  47  35 S7        30.26F
SAGINAW HB     CLOUDY    81  43  26 SW17G24   30.21S
$$
MIZ043>046-050>051-056>058-064>065-071>073-077>080-241800-
SOUTHWEST LOWER MICHIGAN

CITY           SKY/WX    TMP DP  RH WIND       PRES   REMARKS
BATTLE CREEK   LGT RAIN  73  52  47 CALM      30.22F
BENTON HARBOR  CLOUDY    70  56  61 SE6       30.18S
BIG RAPIDS     CLOUDY    72  46  39 S6        30.20F
COLDWATER      LGT RAIN  71  53  52 S5        30.22S
FREMONT        DRIZZLE   68  51  55 CALM      30.20F
HOLLAND        CLOUDY    71  54  54 S9        30.21S
GRAND RAPIDS   LGT RAIN  72  52  49 SE8       30.20F
IONIA          PTSUNNY   74  49  40 S8        30.21F
KALAMAZOO      CLOUDY    73  52  47 S7        30.20F
LUDINGTON      CLOUDY    71  52  51 S9        30.20R
MARSHALL       CLOUDY    74  52  45 S6        30.21F
MOUNT PLEASANT CLOUDY    75  48  38 SW12      30.21S
MUSKEGON       LGT RAIN  70  47  43 SW7       30.20F
SOUTH HAVEN    CLOUDY    70  54  57 E5        30.19F
$$
MIZ016>042-241800-
NORTHERN LOWER MICHIGAN

CITY           SKY/WX    TMP DP  RH WIND       PRES   REMARKS
ALPENA         CLOUDY    79  43  27 W7        30.16F
BEAVER ISLAND  CLOUDY    68  38  33 W9        30.16S
BELLAIRE       CLOUDY    79  45  30 CALM      30.15S
CADILLAC       CLOUDY    76  49  37 S12G17    30.19S
CHARLEVOIX     CLOUDY    67  48  49 NW5       30.19S
FRANKFORT      CLOUDY    67  41  38 SW7       30.18S
GAYLORD        CLOUDY    77  44  30 SW13      30.17F
GRAYLING       CLOUDY    77  45  31 S8        30.18F
HARBOR SPRINGS CLOUDY    73  45  36 SW3       30.16S
HOUGHTON LAKE  CLOUDY    76  47  35 VRB7      30.20S
MANISTEE       CLOUDY    72  48  43 SW8       30.19R
OSCODA         CLOUDY    79  45  30 SW12      30.18S
PELLSTON       CLOUDY    76  42  29 SW7       30.16S
ROGERS CITY    CLOUDY    61  46  56 N3        30.17S
TRAVERSE CITY  CLOUDY    81  47  30 SW7       30.14F
$$
MIZ007>008-015-241800-
EASTERN UPPER MICHIGAN

CITY           SKY/WX    TMP DP  RH WIND       PRES   REMARKS
KINROSS        PTSUNNY   73  43  33 W6        30.14S
MACKINAC ISLAN CLOUDY    65  40  40 W3        30.15F
NEWBERRY       CLOUDY    68  46  45 S8G20     30.14S
S. S. MARIE    PTSUNNY   75  46  35 S6        30.12S
MUNISING         N/A     77  44  30 VRB3      30.09F
$$
MIZ004>006-011>014-085-241800-
CENTRAL UPPER MICHIGAN

CITY           SKY/WX    TMP DP  RH WIND       PRES   REMARKS
MANISTIQUE     PTSUNNY   57  41  55 S8        30.14F
ESCANABA       CLOUDY    66  45  45 S7        30.12F
MENOMINEE      CLOUDY    70  46  43 SE7       30.12F
SAWYER-GWINN   MOSUNNY   75  43  31 W9        30.11F
$$
MIZ001>003-009>011-084-241800-
WESTERN UPPER MICHIGAN

CITY           SKY/WX    TMP DP  RH WIND       PRES   REMARKS
IRON MOUNTAIN  CLOUDY    77  45  32 VRB6      30.10F
HOUGHTON       PTSUNNY   73  45  36 W8        30.09F
COPPER HARBOR    N/A     62  42  47 N9        30.06S
IRONWOOD       CLOUDY    73  48  40 CALM      30.06F
$$

ABBREVIATIONS USED IN REMARKS
   TC - TEMPERATURE IN CELSIUS
  WCI - WIND CHILL INDEX
   HX - HEAT INDEX
  VSB - VISIBILITY



USA.gov is the U.S. government's official web portal to all federal, state and local government web resources and services.